Wind_Speed
22 20 19 19 19 19 18 18 18 17 17 18 18 18 17 16 16 16 16 17 18 19 20 21 23 24 24 25 25 25 26 26 25 26 26 26 26 25 25 27 28 27 27 26 25 24 23 22 21 20 20 19 19 18 18 18 18 18 17 16 15 15 15 14 14 14 14 14 14 15 15 14 14 13 13 13 13 13 13 13 12 12 11 10 9
19 18 19 19 18 18 18 17 17 16 17 17 17 17 16 16 15 15 16 16 18 19 20 21 22 24 25 25 25 25 25 26 26 27 28 28 27 26 25 26 28 28 27 26 25 24 24 24 23 22 21 21 20 19 19 19 19 19 19 18 18 17 16 16 15 15 15 15 15 15 15 15 15 14 14 14 14 14 14 14 14 14 13 12 11
18 17 17 17 17 18 18 18 16 16 16 16 16 16 16 16 16 16 16 16 17 18 18 20 21 22 23 24 25 25 25 26 26 26 27 27 27 26 25 26 29 29 27 25 25 24 24 24 24 24 23 22 21 20 19 19 20 20 20 20 20 19 19 18 17 17 16 16 16 16 16 15 15 15 15 15 15 15 15 15 15 15 14 14 13
16 16 15 15 16 17 16 16 15 15 15 15 15 15 15 15 16 16 16 16 17 16 17 18 19 20 21 23 24 25 25 25 25 25 25 25 25 26 25 24 26 28 26 25 24 24 24 24 25 26 25 23 23 22 21 20 20 21 21 21 21 21 20 20 19 19 18 18 17 17 16 16 16 16 16 16 16 17 17 17 16 16 15 15 14
15 14 15 15 14 14 13 13 13 13 13 13 13 14 14 15 15 15 15 16 16 16 16 17 18 18 20 21 22 22 23 23 24 24 23 24 23 24 24 21 20 23 23 24 24 24 24 24 25 26 26 25 24 24 23 22 21 21 22 22 22 22 22 22 21 21 20 19 19 18 18 17 17 17 17 17 18 18 18 18 18 17 17 16 15
15 14 14 14 14 13 13 13 12 12 13 12 12 13 13 14 14 14 14 15 15 15 16 16 16 16 18 19 19 19 19 20 21 22 22 23 22 22 23 22 20 19 20 22 24 24 25 25 25 26 27 27 26 25 25 24 22 21 22 22 22 22 22 22 23 23 22 22 21 20 20 19 19 19 19 19 19 19 19 19 19 19 18 17 17
14 14 14 14 14 14 14 12 11 11 12 12 11 12 12 13 14 13 13 14 15 16 15 15 15 15 16 17 17 17 18 19 19 20 21 21 22 22 22 23 23 21 20 22 24 25 26 27 27 26 27 28 28 28 26 25 23 22 22 22 22 22 22 22 22 23 23 24 24 23 22 22 21 21 20 20 20 20 20 20 20 20 19 19 18
13 13 13 14 14 14 13 11 10 10 11 12 11 11 12 13 13 13 13 14 15 16 16 15 15 15 16 16 16 16 17 18 19 20 20 20 20 21 21 22 23 23 23 24 25 25 26 27 27 27 27 28 29 29 28 26 25 23 23 23 22 22 22 22 22 22 23 24 25 25 25 24 23 23 22 22 21 21 21 21 21 21 21 20 20
12 13 13 13 14 13 13 12 11 11 11 12 11 11 12 13 13 13 13 14 15 16 15 15 15 15 14 15 15 16 17 18 19 20 21 21 21 21 21 21 22 23 23 24 25 26 25 25 26 26 25 26 27 28 29 28 26 25 24 24 23 23 23 23 23 23 23 23 24 26 27 26 26 25 24 23 23 23 22 22 22 22 22 21 21
12 13 13 13 14 13 12 12 12 12 12 11 11 11 11 12 12 13 14 15 15 15 16 16 16 14 14 14 15 16 17 18 19 20 20 21 21 21 21 20 20 22 23 23 24 25 24 23 24 25 25 24 25 26 28 28 28 27 27 26 25 25 25 25 25 25 25 24 24 25 27 28 28 27 26 25 25 24 24 24 23 23 23 23 22
12 12 12 13 14 14 12 12 12 12 12 11 11 11 11 11 12 12 14 15 16 16 16 17 16 15 14 14 14 15 16 17 18 19 19 20 20 19 19 18 17 19 21 23 24 25 25 24 23 24 25 24 23 24 26 28 30 30 30 29 28 27 27 26 26 27 27 26 26 26 26 27 28 29 29 28 27 27 26 25 25 25 24 24 24
11 11 11 12 14 14 13 13 13 13 12 12 12 12 12 12 12 12 14 15 16 17 17 17 16 16 15 14 15 15 15 16 17 18 18 19 19 19 19 19 17 18 19 21 22 23 24 24 23 22 23 24 24 25 26 28 30 31 32 32 31 30 28 28 27 27 27 27 27 27 27 26 27 28 29 29 29 29 28 27 26 26 26 25 25
10 10 10 11 12 13 13 13 13 13 13 13 13 13 13 13 13 13 14 15 16 17 17 17 17 16 16 15 15 16 16 17 17 18 18 18 19 19 19 18 18 18 19 19 18 19 19 21 23 23 22 24 26 26 27 28 30 31 32 32 33 32 31 30 29 29 29 28 28 28 29 28 28 27 28 28 29 29 29 29 28 27 27 27 27
10 10 11 11 11 12 13 13 14 14 13 13 13 14 14 14 14 14 14 15 16 16 17 17 17 17 16 16 16 17 17 18 18 18 18 18 18 19 18 18 18 18 19 19 18 18 19 20 21 22 23 25 27 28 28 30 31 31 30 31 32 32 32 31 31 31 31 31 30 29 30 31 30 29 28 28 28 28 28 29 29 29 28 28 28
11 11 11 11 12 12 13 13 14 14 14 14 14 15 15 16 16 16 16 16 16 17 17 18 18 18 18 17 17 18 18 20 20 19 18 18 19 19 18 18 18 18 19 20 20 21 21 21 21 22 22 24 26 28 29 29 30 29 28 30 32 32 32 32 33 32 33 33 32 31 31 32 33 32 31 30 29 28 28 28 29 29 30 30 29
11 12 12 12 12 13 13 13 13 14 15 15 15 16 16 17 17 18 18 18 17 18 18 19 19 20 20 19 19 19 20 21 21 20 18 18 19 19 19 19 19 19 20 20 20 21 22 22 22 22 23 22 22 24 27 27 27 27 28 29 32 33 33 33 33 33 33 34 34 34 33 33 34 35 34 33 31 30 29 29 29 30 30 30 30
12 12 13 13 13 13 13 13 14 14 15 15 16 16 17 17 18 18 18 18 18 18 18 19 20 21 21 21 20 21 21 21 21 20 19 19 20 20 20 19 19 20 20 21 21 21 22 22 22 22 22 22 19 19 21 25 26 27 28 28 30 31 32 33 34 34 35 36 36 36 36 35 35 35 35 35 34 32 31 30 30 30 30 31 31
12 12 13 14 14 13 13 12 13 14 15 15 16 17 17 18 18 18 19 19 19 18 19 19 20 20 21 21 21 21 21 20 20 21 20 20 20 20 20 19 19 19 21 21 22 22 22 23 22 22 22 22 21 19 19 21 24 26 26 26 27 29 30 31 32 33 34 36 36 37 37 36 35 36 36 36 35 34 33 31 31 30 30 30 31
13 14 14 15 15 15 14 13 13 14 15 15 16 17 18 18 19 19 19 19 19 19 19 19 19 20 20 20 20 21 21 20 21 21 20 19 21 21 20 19 19 21 21 21 21 22 22 23 23 23 22 22 21 20 19 19 19 21 23 25 26 27 29 30 30 31 32 34 36 38 38 38 37 36 36 35 35 34 33 32 32 31 31 30 30
15 16 16 16 16 16 16 15 14 14 15 15 16 17 17 18 19 20 20 20 21 21 20 20 20 20 19 19 20 20 20 21 21 21 20 20 20 20 19 18 20 21 22 22 22 22 23 23 23 23 23 22 21 20 20 20 19 20 21 24 25 26 27 29 30 32 32 32 33 34 34 34 35 36 36 35 34 33 32 31 31 31 30 30 30
17 18 18 18 17 17 17 16 15 15 15 15 16 17 17 18 19 19 20 21 21 22 22 21 21 20 20 19 20 20 20 21 21 21 21 19 18 19 18 18 19 20 20 21 21 21 22 23 23 23 23 22 22 22 22 21 21 21 22 23 24 23 25 26 28 30 30 29 29 29 28 28 30 33 34 34 33 33 32 31 31 31 30 29 30
16 18 19 18 18 17 17 17 16 16 16 16 16 17 17 18 18 19 20 21 22 22 22 22 22 22 21 20 20 20 20 20 21 21 21 20 19 19 20 20 20 20 19 19 19 20 21 22 23 24 24 23 24 24 23 23 22 22 22 22 22 22 22 21 22 25 26 26 25 25 25 26 27 29 31 32 32 31 31 32 32 31 31 30 30
15 16 17 17 17 17 18 17 17 17 17 17 17 17 17 17 18 19 19 20 21 21 22 23 23 23 23 22 21 20 20 20 21 21 21 21 20 20 20 20 20 20 20 20 20 20 20 21 22 23 24 24 25 25 25 25 24 23 23 22 23 23 22 20 19 20 21 20 20 20 21 24 26 27 28 29 30 30 30 31 31 30 30 30 31
14 15 15 15 16 17 18 18 18 18 18 18 17 17 17 17 18 18 19 19 19 20 20 21 23 23 23 23 22 21 21 20 20 21 20 20 19 19 19 19 20 20 20 20 20 20 20 20 21 23 23 24 24 25 26 26 25 26 26 25 24 24 25 25 23 21 20 19 19 19 21 23 24 26 27 28 28 28 29 30 31 30 30 30 30
14 14 14 15 16 16 18 19 19 19 19 18 18 17 18 17 17 18 18 18 19 19 19 19 20 21 22 22 21 21 21 20 20 20 20 19 19 18 18 18 19 19 19 20 20 20 20 21 21 22 23 23 24 25 26 26 27 27 27 27 26 26 26 26 27 26 24 22 20 20 22 23 22 23 25 26 27 29 31 32 32 32 32 31 30
13 14 15 15 16 17 18 19 19 20 19 18 18 17 17 17 17 17 17 18 18 18 18 18 18 19 20 20 20 20 20 20 20 20 19 19 18 17 17 17 17 18 18 19 19 19 19 20 21 21 22 22 23 24 25 25 26 26 26 27 27 27 27 27 27 27 25 23 22 23 24 24 24 23 23 24 26 28 29 30 31 32 32 33 33
16 16 16 16 16 17 17 18 18 19 19 19 18 18 17 17 16 16 16 16 17 17 18 18 18 18 18 18 18 19 19 19 19 19 19 18 18 17 16 15 16 17 17 17 18 18 18 19 20 20 20 21 21 22 23 24 25 25 26 26 27 28 28 29 29 29 29 28 28 27 27 27 28 28 28 27 28 28 28 28 28 28 30 31 34
19 18 17 18 18 18 17 17 17 18 18 19 19 19 18 17 16 15 15 15 15 16 16 17 18 18 18 17 17 17 17 17 18 18 18 18 18 17 16 15 14 15 15 15 16 17 17 18 19 19 20 20 20 21 22 23 24 24 25 26 27 27 28 29 29 30 30 30 30 29 28 28 28 29 30 30 30 29 29 28 27 28 29 31 33
18 16 17 19 19 18 18 17 17 17 18 18 18 18 18 17 17 16 15 15 15 15 16 16 17 17 17 16 16 16 15 16 16 16 16 16 16 16 15 15 14 13 13 14 15 15 16 17 18 18 19 19 19 20 21 21 22 23 24 25 25 26 26 27 27 28 28 28 28 28 27 27 28 28 29 29 29 29 28 28 28 28 29 30 31
15 13 16 18 19 19 18 18 18 17 17 17 16 17 17 17 17 16 16 16 17 17 17 17 17 16 16 16 15 15 14 14 14 15 15 15 15 14 14 14 13 13 13 13 13 14 14 15 16 17 17 18 18 19 19 20 21 22 22 23 24 24 24 25 25 25 26 26 26 26 26 27 27 27 28 28 28 28 28 28 28 28 28 28 29
15 13 15 17 18 18 19 18 18 17 17 16 16 16 16 16 16 16 16 16 17 18 19 19 18 17 16 15 15 14 14 14 14 14 14 14 14 14 14 13 13 13 13 12 12 13 13 14 15 15 16 17 17 17 17 18 19 19 20 21 22 23 23 23 23 23 24 24 24 24 24 25 25 26 26 26 27 27 27 27 27 27 27 27 28
20 17 16 16 17 18 18 18 17 17 17 17 16 16 16 16 15 15 15 15 16 17 18 19 19 19 18 16 15 14 14 14 14 14 14 14 14 14 14 14 14 14 13 13 13 14 14 15 15 15 16 16 16 16 17 17 17 18 18 19 19 20 21 21 21 21 21 21 22 22 22 22 23 23 24 24 24 25 25 26 26 26 27 27 28
21 19 18 17 16 17 18 17 17 18 18 18 17 16 15 14 14 14 14 13 14 15 16 17 17 18 18 17 16 15 15 14 14 15 15 15 14 14 14 14 14 14 14 15 15 15 16 16 16 17 17 17 17 17 18 18 18 18 18 18 19 19 19 20 20 20 20 20 20 20 20 21 21 21 22 22 23 23 23 24 25 25 26 27 26
20 20 18 17 17 17 18 17 17 18 19 18 17 15 14 13 14 14 13 13 14 15 16 16 17 18 18 18 18 17 16 16 16 16 16 16 16 16 16 16 16 16 16 17 17 17 18 18 18 18 19 19 19 19 20 20 20 20 20 20 20 20 20 20 21 21 21 21 21 21 21 21 21 21 21 22 22 22 23 23 23 24 24 25 25
20 21 20 18 17 18 18 18 18 18 19 18 17 16 16 16 16 17 17 17 18 18 18 18 18 18 18 18 19 19 19 18 18 18 18 18 18 18 18 19 19 19 19 19 19 19 19 19 20 20 21 21 21 21 22 22 22 22 22 22 22 22 23 22 22 23 23 24 23 23 23 23 23 23 23 23 23 23 24 23 23 23 24 24 24
22 23 21 19 18 18 18 18 19 20 20 19 19 20 20 19 19 19 19 20 20 20 20 21 21 21 21 21 21 21 21 21 20 20 20 20 20 20 20 21 21 21 21 22 22 22 21 21 22 22 22 23 23 23 23 24 24 24 24 24 25 25 25 25 25 25 25 26 26 26 26 26 26 26 25 26 26 26 26 26 26 26 25 25 25
21 21 20 19 18 18 19 19 20 22 22 22 22 22 22 22 21 20 20 21 21 21 22 22 23 23 24 25 24 24 23 23 22 22 21 22 22 22 22 23 23 23 23 23 23 23 23 24 24 24 24 24 24 25 25 25 25 26 26 26 27 27 27 27 28 27 28 28 28 29 29 29 29 29 29 29 29 29 30 29 29 29 29 29 29
19 19 19 18 18 18 19 19 21 23 24 24 24 24 24 23 23 22 22 23 22 21 21 22 23 23 24 24 24 24 25 25 26 25 24 24 24 25 25 26 26 26 25 25 25 25 25 25 26 26 27 27 27 27 27 27 27 28 28 29 29 29 29 29 29 29 30 30 30 31 31 31 31 31 31 31 31 32 32 32 32 32 32 32 32
19 19 19 20 21 20 20 20 22 23 25 25 25 26 26 25 25 25 24 24 23 23 22 23 23 24 24 24 24 24 25 26 27 28 26 26 27 27 28 29 29 29 28 28 28 29 29 29 28 28 28 29 29 29 29 30 30 31 31 32 32 32 33 33 33 32 32 33 33 33 33 33 33 33 33 33 33 33 34 34 33 33 34 34 34
21 21 21 21 22 22 21 21 22 23 25 26 27 27 27 27 27 27 25 24 24 24 24 24 25 26 26 26 26 26 26 26 26 27 27 27 28 29 29 31 32 32 32 31 32 33 34 34 34 33 32 32 32 32 32 32 33 34 34 35 36 36 36 37 37 36 36 37 37 37 37 37 37 37 37 36 36 36 37 37 36 36 36 36 36
25 24 23 23 23 23 23 23 24 25 26 28 29 30 30 29 29 28 28 27 27 26 27 27 28 29 30 30 30 31 30 29 29 29 29 30 32 33 33 34 35 36 35 34 35 37 37 38 38 38 38 38 37 36 36 36 36 37 38 38 38 39 39 40 40 39 39 40 41 41 41 41 41 42 42 42 40 40 41 41 40 40 40 40 40
29 27 26 26 27 27 28 27 28 28 29 29 30 30 31 31 31 31 31 31 31 31 32 32 32 33 34 34 35 36 35 35 35 34 35 36 37 37 37 36 36 37 37 37 38 38 39 41 42 42 43 44 43 42 42 41 41 42 43 43 43 44 44 44 44 43 42 42 44 44 44 45 44 45 46 47 46 45 46 47 46 46 45 45 44
32 31 30 30 31 32 32 32 31 31 31 31 31 31 32 33 34 35 35 35 36 37 37 37 36 37 37 37 38 39 40 40 40 40 41 41 41 41 40 39 38 37 38 39 40 40 40 42 43 44 45 46 46 45 46 46 46 47 47 48 49 50 51 51 50 50 49 47 48 49 49 49 49 49 49 50 50 50 50 51 51 51 50 50 50
37 37 36 35 35 35 36 35 35 35 35 35 35 36 36 37 38 39 40 40 41 41 40 40 39 39 39 39 40 41 41 42 42 43 43 44 44 43 43 42 41 41 40 41 42 43 44 45 46 46 47 48 49 48 48 49 50 50 51 52 54 55 56 56 56 56 56 55 55 54 54 55 56 55 54 55 55 55 55 55 55 55 55 54 54
41 41 40 40 39 39 39 38 39 39 39 40 41 41 42 42 43 43 43 43 43 42 41 41 41 41 41 41 42 42 43 42 42 42 43 44 44 43 43 43 43 43 44 45 46 47 48 49 49 49 50 51 52 52 52 52 53 53 54 56 58 58 59 59 59 60 61 61 61 60 59 60 60 60 59 60 60 60 60 60 60 60 60 60 59
43 42 39 39 41 42 42 41 41 42 43 43 44 45 45 45 44 44 44 43 42 42 42 43 43 43 43 43 43 43 44 43 42 42 41 42 42 42 43 44 44 45 45 46 47 48 49 49 50 51 51 52 53 53 54 54 55 55 56 57 59 60 61 61 61 62 63 63 64 64 64 64 64 63 63 63 63 64 64 64 65 65 65 65 65
46 44 42 43 45 45 45 45 44 44 45 45 45 46 45 45 44 43 43 43 43 44 44 44 44 44 43 43 43 44 45 45 45 44 43 42 43 43 44 45 46 47 47 48 48 48 49 50 50 51 51 52 53 53 54 55 55 56 56 57 59 60 61 61 61 62 63 63 64 65 65 66 66 67 66 66 66 65 65 66 67 67 67 68 68
47 47 47 49 50 50 49 48 46 46 45 45 46 46 45 44 44 44 44 44 45 45 45 46 46 45 45 45 46 47 47 47 47 47 46 45 45 45 46 47 47 48 48 48 49 49 49 50 50 51 51 52 52 53 54 54 55 56 56 57 58 59 59 60 60 61 61 62 63 63 64 64 66 67 67 67 67 67 67 67 68 68 68 69 70
46 47 49 49 50 50 49 48 48 47 46 46 46 46 45 45 46 46 46 45 45 45 46 46 47 47 47 48 48 48 48 48 48 47 47 47 47 47 47 48 48 48 49 49 49 49 50 50 50 51 51 52 52 53 53 54 55 55 56 56 57 58 58 59 59 59 60 61 62 62 62 63 64 65 65 66 66 66 67 67 67 67 67 68 69
44 45 46 47 48 48 48 49 49 49 48 48 46 46 46 46 45 45 44 43 43 44 45 46 46 46 45 45 45 45 45 45 45 45 46 46 46 47 47 48 48 48 48 49 49 49 50 50 51 51 51 52 52 53 53 54 54 55 55 56 57 57 58 58 58 58 59 59 61 61 60 61 62 63 64 64 64 64 65 65 66 66 66 67 67
40 42 43 44 45 45 46 47 47 47 46 46 45 45 45 43 42 41 41 41 42 44 45 45 44 44 43 43 43 43 43 43 44 44 45 46 46 47 47 48 48 48 48 49 49 50 50 51 51 51 52 52 52 53 53 53 54 54 55 55 56 57 57 57 58 58 58 59 60 60 60 60 61 62 63 64 63 64 64 64 65 65 66 66 67
Wind_Direction
272 273 277 280 281 282 281 279 278 277 273 270 268 265 263 261 260 257 254 252 248 244 241 238 237 237 237 238 239 240 242 244 245 246 248 250 251 250 251 253 253 253 253 252 251 250 250 247 245 245 245 245 245 244 242 240 238 236 236 235 233 231 231 232 233 234 234 234 235 236 235 232 229 227 226 225 223 221 220 219 216 214 212 209 208
277 276 275 279 282 282 280 278 278 277 273 271 269 267 263 260 258 255 250 247 244 240 237 235 234 236 237 238 239 241 242 243 244 245 246 247 249 251 251 252 251 250 251 251 251 250 251 250 248 247 247 246 245 245 244 244 244 241 239 236 235 233 232 232 233 234 235 236 236 236 235 235 233 231 230 229 227 226 224 222 220 217 215 213 212
281 279 280 284 285 283 281 279 278 275 273 272 271 268 264 259 257 256 250 244 242 240 238 237 235 236 239 240 241 242 242 243 244 245 246 246 248 250 250 252 247 243 245 248 250 250 250 251 251 250 250 248 247 245 244 245 247 247 244 241 238 237 235 233 233 233 234 236 237 237 236 235 234 233 232 231 230 229 228 226 224 221 219 217 216
281 282 284 285 284 283 282 279 276 274 275 274 273 269 265 261 258 257 254 247 243 239 239 239 237 236 239 241 242 243 244 245 245 246 248 248 250 250 251 254 244 236 241 246 249 251 250 251 251 252 251 250 249 247 244 244 247 249 248 246 244 241 240 238 236 235 234 235 236 238 238 237 235 233 232 231 230 230 229 228 227 225 223 221 220
281 281 282 281 280 281 280 277 275 275 276 275 274 272 266 262 260 258 256 252 246 239 238 239 239 238 240 243 244 246 247 247 247 246 248 249 250 249 250 254 244 235 239 244 248 251 251 251 251 252 252 251 250 249 247 245 246 247 249 250 249 247 245 243 241 238 237 236 236 237 237 237 236 235 233 232 231 230 230 230 230 228 227 226 226
281 278 277 278 278 278 278 274 274 276 276 274 275 273 265 262 260 257 255 254 251 245 242 242 240 239 241 244 245 247 248 250 250 250 250 250 250 249 248 250 248 243 242 245 248 251 251 251 251 251 252 251 250 249 248 247 247 246 247 249 251 251 249 247 245 243 241 239 238 237 236 236 235 235 235 235 233 233 232 231 232 231 231 230 231
278 277 274 275 276 276 277 274 273 278 279 276 276 274 268 265 264 261 258 256 254 250 248 246 243 241 242 244 245 247 251 254 256 256 254 253 252 252 250 250 250 249 249 248 249 251 253 251 248 248 249 250 250 250 249 249 250 249 248 249 250 252 252 251 249 247 245 243 242 240 239 237 237 236 236 237 237 237 236 234 234 234 235 235 235
274 274 273 273 274 275 276 275 276 278 278 276 275 273 271 269 269 269 266 260 256 253 253 251 249 247 246 248 249 252 256 259 261 262 261 260 258 256 255 253 250 248 248 249 250 252 253 251 247 245 246 248 249 249 250 251 253 252 251 252 252 252 252 253 253 251 249 247 246 244 243 242 241 241 240 240 240 241 241 240 238 237 238 239 239
275 274 273 274 275 276 275 274 274 273 271 272 273 271 272 272 273 275 272 266 262 259 259 258 257 255 253 253 254 256 259 261 262 264 265 265 264 262 261 259 253 248 245 247 250 252 252 251 249 248 247 248 249 249 250 251 254 255 255 255 255 253 252 253 254 254 253 251 249 248 247 247 247 246 246 245 245 245 245 244 243 242 241 241 242
276 275 274 275 276 275 274 274 272 271 268 269 270 268 270 274 275 276 274 271 267 265 265 265 264 262 259 257 256 257 259 260 260 262 264 265 265 265 266 265 259 252 247 248 252 253 255 255 253 253 253 253 252 251 252 253 254 255 254 254 254 253 252 252 254 255 256 255 254 252 250 250 250 251 250 250 250 249 249 248 247 246 245 244 245
271 271 271 274 278 277 275 274 272 270 269 269 269 269 269 271 271 270 269 268 266 266 267 269 269 266 263 261 260 260 260 261 261 261 263 264 265 266 268 269 266 259 253 252 254 255 258 260 260 258 256 256 256 252 251 251 252 253 252 251 251 251 251 252 254 256 257 257 257 256 254 253 252 252 252 251 251 251 252 251 250 250 249 248 248
266 268 268 270 275 277 275 272 272 272 273 274 275 275 273 270 268 265 263 263 262 263 265 267 269 269 267 265 264 263 262 263 264 264 264 264 265 266 267 269 269 266 260 256 256 256 258 259 260 261 257 256 256 255 253 250 250 250 252 252 251 251 251 252 254 256 259 259 259 258 256 255 254 253 252 252 252 251 251 252 253 252 251 250 250
269 268 269 268 268 272 272 272 273 273 274 275 277 277 276 273 268 262 259 259 259 259 260 263 266 269 269 268 266 266 265 266 267 268 268 267 268 267 267 267 267 265 263 263 263 262 261 259 259 262 262 259 259 259 258 255 253 251 250 251 252 251 251 252 254 256 257 258 260 259 257 255 255 254 253 252 252 251 250 251 252 252 252 251 251
273 273 272 271 270 270 270 271 272 273 273 273 274 275 275 274 270 264 258 255 256 256 258 261 264 266 268 269 269 268 268 268 268 268 270 270 271 271 270 269 267 263 262 266 269 269 268 265 263 265 266 264 262 261 259 257 256 253 247 247 250 251 251 252 253 254 255 256 257 258 257 255 253 253 253 252 251 251 250 250 251 252 251 251 250
273 274 271 270 271 270 270 270 269 270 271 271 271 271 271 272 270 267 262 256 254 255 258 261 264 266 268 269 269 269 269 269 267 267 269 270 271 272 273 274 272 268 266 265 267 269 269 269 268 269 270 270 266 261 258 256 256 255 250 247 249 250 250 252 253 254 256 256 255 256 255 253 252 251 252 252 250 250 250 251 251 251 251 250 250
273 272 269 268 267 269 271 271 270 269 268 269 269 269 269 268 268 268 266 262 258 257 258 261 264 266 268 269 270 269 269 269 268 266 266 269 270 271 272 273 272 271 269 266 265 267 269 270 271 272 275 278 272 261 257 256 256 257 256 253 251 251 252 253 255 256 256 256 256 255 254 252 250 250 252 253 252 251 252 252 253 252 251 251 251
270 270 268 266 263 264 267 270 272 270 268 268 268 268 268 267 267 267 267 266 264 262 260 261 263 265 268 270 270 270 270 272 272 268 266 268 268 268 269 269 270 271 271 269 267 267 269 272 274 275 277 279 277 269 261 257 255 256 257 256 253 253 255 255 256 257 256 257 257 257 256 255 252 250 251 253 254 255 255 255 255 255 254 253 253
270 271 269 267 265 263 265 267 270 271 270 268 267 268 268 269 269 269 269 269 270 269 265 263 263 264 266 267 268 269 270 271 270 268 265 264 264 264 265 264 264 267 268 268 267 267 270 272 274 276 278 279 277 273 266 260 255 252 253 254 254 255 256 256 257 258 257 258 259 259 258 257 254 252 251 251 252 255 257 258 258 258 256 255 254
273 273 271 270 267 265 265 267 270 272 273 272 271 270 270 271 272 272 272 273 273 272 270 268 266 265 264 265 265 265 266 265 265 265 262 261 264 264 262 261 260 262 264 266 267 268 270 272 274 274 276 277 276 272 269 268 264 257 254 256 257 258 257 256 256 258 259 258 257 257 257 256 255 254 252 250 250 254 257 258 258 259 257 255 255
281 278 274 271 268 265 264 266 269 272 273 274 274 273 272 273 274 274 275 275 275 274 274 272 270 268 265 263 262 262 262 261 261 262 262 263 264 261 259 260 262 263 265 265 267 268 269 270 270 271 271 271 270 269 269 271 271 267 264 262 260 260 261 259 258 259 261 259 257 257 259 258 255 254 253 252 251 253 255 256 257 259 259 257 255
282 278 275 272 269 267 265 266 269 270 272 273 274 274 274 275 276 277 278 278 278 277 276 275 273 271 268 265 263 261 259 258 257 259 260 260 258 255 256 261 263 264 265 265 265 266 267 266 265 266 267 267 266 266 265 266 268 268 268 267 265 266 269 269 266 264 262 261 261 262 263 261 257 255 254 254 253 252 252 253 257 260 259 257 255
279 271 270 270 270 268 267 267 268 271 272 272 272 273 274 275 276 278 279 280 280 280 279 277 276 274 271 268 264 261 258 256 255 254 254 253 253 255 257 259 260 261 264 265 264 263 263 264 264 264 265 265 265 266 266 267 268 269 269 269 268 270 274 278 275 270 265 263 265 267 265 264 262 258 256 256 253 249 248 251 256 260 260 259 257
281 268 266 267 268 268 268 268 269 271 273 273 272 271 271 273 274 276 279 281 282 282 282 281 279 277 274 271 268 264 261 257 255 254 252 250 251 253 255 257 258 260 262 263 263 262 261 262 263 264 264 263 264 266 267 267 268 268 269 268 268 268 269 270 270 271 270 269 271 274 272 270 267 261 257 256 253 248 247 250 256 260 261 262 260
283 268 264 265 267 268 269 270 271 270 271 272 273 272 272 272 273 274 277 279 282 283 283 283 281 279 275 272 270 267 264 261 258 256 254 252 251 251 252 255 257 260 262 263 264 264 263 262 262 263 264 264 263 264 265 266 267 268 268 267 267 267 267 265 262 262 264 265 269 276 278 276 272 264 257 255 253 250 250 252 256 259 262 264 261
279 268 265 265 266 268 269 270 270 269 269 270 271 272 273 273 273 273 274 276 278 280 282 282 282 281 278 274 271 268 265 263 261 259 257 256 254 253 253 255 258 260 262 263 264 265 264 264 263 263 265 265 265 265 265 265 265 266 266 266 265 265 265 265 262 258 255 257 261 268 273 276 275 268 260 256 255 255 255 257 258 259 261 263 259
269 266 264 264 265 267 268 268 267 266 266 267 268 269 271 272 273 274 274 275 276 278 280 281 281 281 280 278 275 271 268 265 262 261 259 257 256 253 253 254 256 259 261 263 264 265 266 266 265 265 265 264 264 265 265 265 265 265 264 264 264 263 263 264 265 263 262 263 266 269 271 272 273 271 266 263 261 262 263 264 264 263 262 260 258
260 262 259 259 263 265 266 267 265 262 261 261 263 265 266 268 270 273 274 275 277 278 279 279 280 281 281 280 278 275 272 268 264 262 260 259 258 256 255 255 255 257 259 262 264 265 266 267 267 268 267 267 266 265 265 265 266 266 265 264 265 265 266 267 268 270 271 272 274 274 272 270 268 268 267 267 266 267 268 268 268 267 265 264 264
262 263 257 256 261 263 265 265 262 259 256 255 256 257 259 260 261 264 267 271 274 276 277 278 279 279 279 279 279 278 276 273 270 266 263 261 259 258 258 257 257 258 260 262 264 265 267 268 269 270 270 269 268 266 265 265 266 266 265 266 266 266 267 268 269 270 272 273 274 273 271 268 266 265 265 266 267 268 268 268 267 266 266 266 267
274 267 254 253 257 259 261 262 261 258 255 253 253 253 254 255 255 257 259 263 266 269 271 273 274 275 276 277 278 278 278 277 275 273 270 267 264 262 260 259 258 259 260 263 266 268 270 272 273 273 274 273 272 271 270 269 268 268 268 268 268 268 268 268 268 268 268 269 269 269 267 266 264 263 262 263 265 266 266 266 266 266 266 265 264
280 266 249 250 255 258 260 261 262 261 258 255 253 253 254 254 256 258 260 263 264 266 266 267 268 269 271 272 273 274 274 273 274 273 272 271 270 268 266 264 263 262 262 263 265 269 271 274 276 277 278 279 279 279 278 277 276 276 275 275 274 273 271 270 269 267 266 265 265 264 263 263 262 261 261 261 261 262 263 263 264 265 265 266 265
267 259 250 250 254 256 258 262 264 263 258 255 252 252 254 256 258 262 265 267 268 269 269 268 267 266 267 268 268 269 269 268 268 268 268 268 269 269 268 267 267 266 266 266 267 269 272 275 277 279 280 282 282 283 283 283 283 282 281 281 281 280 279 277 274 272 271 269 267 265 264 263 262 262 261 261 261 261 262 263 263 264 264 264 265
260 256 251 249 250 251 253 259 263 262 257 253 251 250 252 256 259 262 265 268 269 271 272 273 273 271 269 267 266 266 266 266 266 264 263 263 263 263 264 265 265 265 265 266 267 268 270 272 274 276 278 279 279 280 281 281 281 281 281 281 282 283 284 285 284 282 280 278 276 274 271 269 268 267 266 265 264 263 263 263 263 264 264 264 265
263 261 256 252 250 249 250 255 261 262 258 253 251 250 251 254 256 258 259 264 268 271 273 274 275 274 272 269 267 266 265 264 264 264 264 262 261 261 261 262 264 265 266 266 266 266 267 269 270 272 273 274 274 274 274 274 274 275 275 276 276 277 278 281 282 283 282 281 280 279 277 275 273 272 271 270 268 266 265 263 263 263 263 265 267
265 266 263 260 256 251 248 251 258 260 257 252 248 246 248 251 253 254 256 262 268 271 273 273 273 273 273 271 270 268 267 266 266 266 267 267 267 267 267 267 267 268 269 269 269 269 269 269 269 269 269 270 271 271 271 271 271 272 272 272 272 271 271 271 273 275 276 276 275 274 273 272 271 270 269 269 269 269 267 266 264 264 264 265 268
263 265 265 263 260 255 249 248 253 255 251 247 245 247 252 255 256 256 258 261 265 267 269 269 269 270 271 272 274 273 271 270 269 271 272 272 272 273 274 275 275 275 274 273 271 270 270 270 270 270 270 270 270 270 271 271 271 271 271 271 271 270 269 268 267 267 269 269 270 270 269 269 268 268 267 267 267 267 267 267 266 266 265 265 266
259 261 263 262 260 257 252 248 249 250 247 245 248 255 261 262 260 260 262 264 265 266 265 265 265 266 268 270 274 275 273 271 270 272 273 274 275 275 276 278 279 280 280 278 277 275 273 271 270 269 269 270 270 271 271 271 271 271 270 270 269 269 269 268 267 265 265 265 265 266 266 266 266 265 265 266 266 266 266 266 266 266 265 265 265
254 257 259 260 260 260 258 253 249 249 248 248 252 259 262 261 259 260 263 265 266 266 265 264 265 265 267 269 271 271 272 272 272 272 273 275 276 278 279 280 281 281 280 279 278 278 276 274 273 271 270 270 270 270 271 271 271 272 271 271 270 269 269 268 268 267 267 266 265 264 264 264 264 264 263 263 264 264 265 265 264 264 264 264 264
248 251 254 257 259 261 259 254 250 250 251 251 256 262 262 259 257 258 259 261 263 264 265 266 266 266 268 270 270 268 268 269 270 271 272 274 276 277 279 280 280 280 280 279 277 276 275 274 273 273 272 272 271 270 270 271 271 272 272 272 271 271 271 270 270 270 269 269 269 268 266 265 264 264 264 264 264 264 264 265 265 265 265 265 265
247 249 252 253 255 256 256 254 252 252 254 256 260 263 261 258 256 257 258 260 262 263 264 265 266 266 266 267 266 264 263 264 266 268 269 270 272 273 276 278 278 277 276 275 276 275 274 273 272 272 271 271 271 269 268 268 269 269 269 269 269 270 270 271 271 271 271 270 270 270 270 269 268 267 266 266 266 266 266 266 266 267 268 268 268
251 253 256 255 252 252 252 253 255 257 259 261 263 262 261 258 257 257 257 257 258 260 262 264 264 264 263 262 262 261 261 261 263 265 265 265 266 268 272 274 275 275 274 274 274 274 274 274 273 272 272 271 271 270 269 267 266 266 265 266 267 268 268 268 269 269 269 270 270 269 269 269 269 269 268 267 267 267 267 267 267 267 268 269 269
256 256 257 255 253 254 256 258 259 260 261 262 262 261 261 260 257 255 254 254 256 259 264 266 266 264 263 261 261 261 261 262 262 262 263 263 265 268 271 272 272 273 273 274 273 271 271 272 273 273 273 272 271 271 271 270 269 268 268 267 268 269 269 269 269 268 267 268 268 268 268 267 266 266 267 266 265 265 265 266 265 265 265 266 267
259 256 254 255 256 259 261 262 262 262 262 261 259 259 260 260 258 256 255 255 257 260 265 268 267 265 264 263 263 263 263 263 264 264 264 265 267 270 272 272 272 271 269 268 269 270 270 270 271 272 272 272 272 271 271 271 271 271 271 271 270 270 271 270 270 270 268 267 267 268 268 268 267 266 265 265 264 263 263 264 264 264 263 263 264
260 257 257 259 260 261 262 262 261 261 260 259 258 257 257 257 257 257 257 257 259 262 266 267 267 266 265 264 264 264 264 264 266 267 267 267 268 269 270 270 270 269 267 266 267 270 271 270 270 270 271 272 272 271 271 272 272 272 272 272 272 272 273 273 272 272 270 268 268 269 269 270 269 268 267 267 266 264 263 263 263 263 263 263 263
263 261 263 264 263 261 260 260 259 259 258 257 257 256 257 257 257 258 259 260 261 264 265 266 266 265 264 264 265 265 265 265 266 267 267 268 269 269 269 269 268 268 267 268 269 270 271 271 271 271 271 271 271 270 270 271 271 271 271 272 272 272 273 274 275 274 273 272 270 270 270 270 270 269 269 269 268 267 266 266 265 265 264 263 263
264 264 266 266 264 260 259 258 257 257 256 256 256 256 257 258 259 260 261 262 264 266 266 266 265 265 264 265 265 267 267 268 267 267 266 266 266 267 267 268 268 268 268 269 270 271 271 271 272 272 273 273 272 272 271 270 270 269 269 269 270 271 271 272 273 274 275 275 275 274 273 272 271 270 269 269 269 268 268 268 268 267 267 266 265
260 261 262 262 261 260 258 257 256 255 255 255 255 256 257 258 259 261 263 264 266 266 267 267 266 266 266 266 267 268 269 270 270 269 267 267 267 267 268 268 268 269 269 270 271 271 272 272 273 273 273 273 273 273 273 272 271 270 269 269 269 270 270 270 271 271 272 273 274 275 275 274 274 273 271 270 269 269 268 268 268 268 268 268 268
258 257 256 255 257 258 259 259 257 256 255 255 255 256 257 258 260 261 263 264 265 266 266 266 266 267 268 269 269 270 271 271 271 271 270 269 269 269 270 271 271 271 272 272 272 272 272 273 273 273 273 273 273 273 273 273 273 272 272 271 271 271 271 271 271 271 271 272 272 273 274 275 275 275 274 273 272 271 270 270 269 269 268 268 268
258 257 256 255 257 258 260 260 259 258 257 256 257 258 258 259 260 262 263 264 265 266 266 266 266 266 268 270 271 271 271 271 271 272 271 271 270 270 271 272 273 273 273 273 273 274 274 274 274 274 274 274 274 274 274 274 274 274 274 273 273 273 273 273 273 274 274 274 274 273 274 274 274 274 275 274 274 274 273 272 271 271 270 270 269
256 256 256 257 258 259 259 260 259 259 259 259 259 259 259 261 262 264 265 266 267 268 268 268 268 269 269 270 271 271 271 271 271 271 272 272 272 272 272 273 273 274 275 275 275 275 275 276 276 276 275 275 275 275 275 275 275 275 275 275 275 275 275 275 275 275 275 275 275 275 275 275 274 275 275 275 275 275 275 274 274 273 272 272 271
255 255 255 256 257 258 259 259 260 260 261 261 260 260 261 262 264 265 266 267 269 270 271 271 271 272 272 272 272 272 272 272 271 271 271 272 273 274 274 274 274 275 275 276 276 276 277 277 277 277 277 277 276 276 276 276 277 277 277 277 277 277 277 277 277 276 276 276 276 276 276 276 275 276 276 275 275 276 276 276 276 276 275 275 274
255 255 255 255 256 257 258 259 260 260 261 260 260 261 261 262 262 263 266 269 272 273 273 272 272 273 274 275 276 276 275 274 273 272 272 273 275 276 276 276 276 276 276 276 277 277 278 278 278 278 278 278 278 277 277 277 278 278 278 278 278 278 278 278 278 278 278 278 277 277 276 276 276 276 276 276 276 276 276 277 277 277 277 277 276
Height
5808 5809 5809 5808 5808 5808 5809 5809 5809 5808 5808 5808 5809 5809 5809 5810 5811 5812 5813 5814 5814 5815 5816 5817 5817 5817 5817 5817 5816 5817 5817 5818 5818 5819 5819 5820 5821 5823 5825 5825 5826 5826 5827 5828 5829 5830 5832 5833 5834 5834 5835 5836 5836 5837 5838 5839 5840 5841 5842 5843 5844 5844 5845 5846 5846 5847 5847 5848 5848 5849 5849 5850 5851 5851 5852 5853 5853 5854 5854 5854 5854 5854 5854 5855 5855
5807 5808 5807 5807 5807 5807 5807 5807 5807 5807 5807 5807 5807 5807 5807 5808 5809 5810 5810 5811 5811 5812 5813 5814 5815 5815 5815 5815 5815 5815 5815 5816 5816 5817 5817 5818 5819 5821 5822 5823 5823 5824 5825 5826 5827 5828 5829 5830 5832 5832 5833 5834 5834 5835 5836 5837 5838 5839 5840 5841 5841 5842 5843 5844 5844 5845 5845 5846 5846 5847 5848 5848 5849 5850 5850 5851 5851 5852 5852 5853 5853 5853 5853 5854 5854
5806 5807 5806 5806 5806 5805 5805 5806 5806 5805 5805 5805 5806 5806 5806 5806 5807 5807 5808 5809 5809 5810 5811 5812 5813 5813 5813 5813 5813 5813 5814 5814 5815 5815 5815 5816 5817 5818 5820 5820 5820 5821 5822 5823 5824 5826 5827 5828 5829 5830 5831 5832 5833 5833 5834 5835 5836 5836 5837 5838 5839 5840 5841 5841 5842 5842 5843 5844 5845 5845 5846 5847 5847 5848 5848 5849 5849 5850 5851 5851 5851 5852 5852 5853 5853
5806 5805 5804 5805 5805 5804 5804 5804 5804 5804 5804 5804 5804 5805 5804 5804 5805 5805 5806 5807 5807 5808 5809 5810 5811 5811 5812 5812 5812 5812 5812 5813 5813 5813 5814 5815 5816 5817 5818 5818 5818 5819 5820 5821 5822 5823 5825 5826 5827 5827 5829 5830 5831 5831 5832 5833 5833 5834 5835 5836 5837 5837 5838 5839 5839 5840 5841 5842 5843 5844 5844 5845 5846 5846 5846 5847 5847 5848 5849 5849 5850 5850 5851 5851 5852
5804 5804 5803 5804 5804 5803 5803 5803 5803 5803 5803 5803 5803 5803 5803 5803 5803 5803 5804 5805 5806 5807 5808 5808 5809 5809 5810 5810 5810 5810 5810 5811 5811 5812 5812 5812 5814 5815 5816 5816 5816 5817 5818 5819 5820 5821 5822 5823 5824 5825 5826 5827 5828 5829 5829 5830 5831 5832 5832 5833 5834 5835 5836 5836 5837 5838 5838 5839 5840 5841 5842 5843 5843 5844 5844 5844 5845 5846 5846 5847 5848 5848 5849 5850 5850
5802 5802 5803 5803 5802 5802 5802 5802 5802 5802 5802 5802 5802 5802 5801 5801 5801 5802 5802 5803 5804 5805 5806 5807 5807 5807 5808 5809 5809 5809 5809 5809 5809 5810 5810 5810 5812 5813 5813 5813 5814 5815 5816 5817 5818 5818 5819 5820 5821 5822 5822 5824 5825 5826 5827 5827 5828 5829 5830 5831 5832 5832 5833 5834 5835 5835 5836 5837 5838 5839 5840 5840 5841 5841 5842 5842 5843 5843 5844 5845 5846 5846 5847 5848 5848
5800 5801 5801 5801 5801 5801 5801 5801 5801 5801 5800 5800 5800 5800 5801 5801 5801 5800 5801 5803 5803 5804 5805 5805 5806 5806 5807 5808 5808 5808 5807 5808 5808 5808 5809 5809 5810 5810 5811 5812 5812 5813 5814 5814 5815 5816 5816 5816 5817 5818 5819 5820 5821 5822 5824 5825 5826 5827 5828 5828 5829 5830 5831 5831 5832 5833 5834 5834 5835 5836 5837 5837 5838 5839 5840 5840 5841 5841 5842 5843 5843 5844 5845 5845 5846
5800 5800 5800 5800 5800 5799 5800 5800 5800 5800 5799 5799 5799 5800 5800 5800 5800 5800 5801 5802 5802 5803 5804 5804 5805 5806 5807 5807 5807 5807 5807 5807 5806 5806 5807 5807 5808 5808 5809 5810 5811 5811 5812 5812 5812 5813 5813 5813 5813 5814 5815 5816 5817 5819 5821 5822 5823 5825 5825 5826 5827 5828 5828 5829 5830 5830 5831 5832 5832 5833 5834 5835 5836 5836 5837 5838 5839 5839 5840 5841 5841 5842 5843 5843 5844
5798 5798 5798 5798 5798 5798 5798 5799 5799 5798 5798 5798 5798 5799 5799 5799 5799 5799 5800 5801 5801 5802 5803 5804 5805 5805 5805 5806 5806 5806 5806 5806 5806 5805 5805 5805 5806 5806 5807 5808 5808 5809 5810 5810 5810 5810 5809 5810 5810 5810 5812 5813 5814 5816 5818 5820 5821 5822 5823 5823 5824 5825 5826 5826 5827 5828 5828 5829 5830 5830 5831 5832 5833 5834 5835 5836 5836 5837 5838 5838 5839 5840 5840 5841 5841
5796 5796 5796 5797 5797 5797 5797 5797 5797 5797 5797 5797 5797 5797 5797 5797 5798 5798 5799 5799 5800 5801 5803 5803 5803 5804 5804 5804 5804 5804 5805 5805 5805 5805 5805 5805 5804 5804 5805 5806 5807 5807 5808 5808 5808 5807 5806 5807 5808 5808 5810 5811 5813 5814 5816 5817 5818 5819 5820 5820 5821 5821 5822 5823 5824 5825 5826 5826 5827 5828 5829 5829 5830 5831 5832 5833 5833 5834 5835 5836 5836 5837 5838 5839 5839
5795 5794 5795 5795 5795 5795 5796 5796 5796 5796 5796 5796 5796 5795 5795 5796 5797 5797 5798 5798 5799 5800 5801 5801 5801 5802 5802 5802 5802 5802 5803 5803 5803 5803 5803 5803 5803 5803 5803 5804 5805 5805 5806 5806 5806 5805 5805 5806 5807 5807 5809 5810 5811 5812 5812 5814 5814 5815 5816 5817 5817 5818 5819 5820 5821 5822 5823 5824 5825 5825 5826 5827 5827 5828 5828 5829 5830 5831 5832 5832 5833 5834 5835 5836 5836
5793 5793 5793 5793 5793 5793 5794 5794 5795 5795 5795 5794 5794 5794 5794 5795 5796 5796 5797 5797 5798 5799 5799 5799 5799 5800 5800 5800 5800 5800 5801 5801 5801 5801 5801 5801 5801 5802 5802 5802 5803 5804 5803 5803 5803 5803 5803 5803 5805 5805 5806 5807 5808 5808 5809 5809 5810 5811 5812 5814 5815 5815 5816 5817 5818 5819 5820 5821 5822 5823 5823 5824 5824 5825 5825 5826 5826 5827 5828 5829 5830 5831 5832 5833 5833
5791 5791 5791 5792 5792 5792 5792 5792 5792 5793 5793 5793 5793 5793 5793 5794 5795 5795 5796 5796 5797 5797 5798 5798 5798 5798 5798 5799 5799 5799 5799 5799 5800 5799 5799 5799 5799 5799 5800 5801 5801 5802 5801 5800 5800 5801 5801 5801 5802 5802 5803 5804 5805 5806 5806 5806 5806 5808 5809 5811 5811 5812 5814 5814 5815 5816 5817 5818 5818 5819 5820 5821 5821 5822 5822 5823 5823 5823 5824 5825 5827 5828 5828 5829 5829
5790 5790 5790 5790 5790 5790 5790 5790 5790 5791 5791 5791 5792 5792 5792 5793 5794 5794 5795 5796 5796 5796 5796 5796 5797 5797 5797 5798 5798 5798 5798 5798 5798 5798 5798 5797 5797 5797 5798 5799 5799 5800 5799 5798 5798 5798 5798 5798 5799 5800 5801 5801 5801 5802 5803 5803 5803 5805 5807 5807 5808 5809 5811 5811 5812 5812 5813 5814 5814 5815 5816 5817 5818 5819 5819 5819 5820 5820 5820 5821 5822 5823 5824 5825 5825
5788 5788 5788 5788 5788 5788 5788 5788 5789 5789 5789 5790 5790 5790 5791 5792 5792 5793 5794 5794 5795 5795 5795 5795 5796 5796 5796 5796 5796 5797 5796 5796 5796 5796 5796 5796 5796 5796 5796 5797 5797 5798 5797 5797 5797 5796 5796 5796 5797 5798 5799 5799 5799 5799 5800 5800 5801 5802 5803 5804 5804 5806 5807 5808 5808 5809 5810 5810 5811 5811 5812 5812 5813 5814 5815 5816 5816 5816 5817 5817 5818 5819 5820 5821 5822
5787 5787 5787 5787 5787 5787 5787 5787 5787 5787 5788 5788 5788 5789 5789 5790 5791 5791 5792 5792 5793 5794 5794 5794 5794 5794 5794 5794 5795 5795 5795 5795 5795 5794 5794 5794 5794 5794 5795 5795 5796 5796 5795 5795 5795 5794 5794 5794 5795 5796 5796 5797 5797 5797 5797 5797 5797 5798 5799 5800 5801 5802 5804 5805 5805 5806 5806 5806 5807 5808 5808 5808 5809 5810 5811 5812 5813 5813 5813 5814 5815 5815 5816 5817 5818
5786 5786 5786 5785 5785 5785 5785 5785 5786 5786 5786 5787 5787 5787 5788 5788 5789 5790 5790 5790 5791 5791 5792 5792 5792 5792 5792 5792 5793 5793 5793 5793 5793 5792 5792 5793 5792 5793 5793 5794 5794 5794 5794 5794 5793 5793 5792 5792 5793 5794 5794 5794 5794 5794 5794 5794 5795 5796 5797 5797 5798 5799 5801 5802 5802 5803 5803 5803 5803 5804 5804 5805 5806 5807 5808 5809 5810 5810 5811 5811 5811 5812 5813 5814 5815
5785 5785 5785 5784 5784 5784 5784 5784 5784 5784 5785 5785 5785 5786 5786 5786 5787 5787 5787 5788 5788 5789 5789 5789 5789 5789 5790 5790 5790 5790 5791 5791 5790 5790 5790 5791 5791 5790 5791 5792 5793 5792 5792 5791 5791 5791 5791 5791 5791 5792 5792 5792 5792 5792 5792 5792 5792 5793 5794 5793 5794 5796 5797 5798 5798 5799 5799 5799 5800 5800 5801 5802 5802 5803 5804 5805 5806 5807 5808 5808 5808 5809 5809 5810 5811
5783 5783 5783 5783 5783 5782 5782 5782 5782 5782 5782 5783 5784 5784 5784 5784 5784 5785 5785 5785 5786 5786 5786 5787 5787 5787 5787 5788 5788 5788 5788 5788 5788 5787 5787 5789 5789 5788 5788 5789 5790 5789 5789 5788 5788 5789 5789 5789 5789 5790 5790 5790 5790 5790 5790 5789 5790 5790 5791 5791 5792 5793 5794 5794 5795 5795 5796 5796 5796 5796 5796 5797 5798 5799 5800 5801 5803 5804 5805 5805 5805 5805 5806 5807 5808
5781 5781 5781 5781 5781 5781 5780 5780 5780 5780 5780 5781 5781 5782 5782 5782 5782 5782 5783 5783 5783 5784 5784 5784 5784 5785 5785 5785 5785 5785 5786 5786 5785 5785 5785 5786 5786 5786 5786 5787 5787 5786 5786 5786 5786 5786 5786 5787 5787 5787 5787 5788 5788 5788 5788 5787 5788 5788 5789 5789 5789 5790 5790 5791 5791 5792 5792 5792 5792 5792 5792 5793 5794 5795 5796 5797 5799 5800 5801 5802 5802 5802 5803 5803 5804
5779 5779 5779 5779 5779 5779 5778 5778 5778 5778 5779 5779 5779 5779 5780 5780 5780 5780 5780 5780 5781 5781 5782 5782 5782 5782 5783 5783 5783 5783 5783 5783 5783 5783 5783 5783 5783 5783 5783 5783 5784 5784 5784 5784 5784 5784 5784 5784 5785 5785 5785 5786 5786 5785 5785 5785 5785 5786 5786 5786 5787 5787 5787 5787 5788 5788 5789 5789 5789 5789 5789 5789 5790 5791 5792 5793 5795 5796 5797 5798 5798 5798 5799 5800 5800
5778 5777 5777 5777 5777 5777 5777 5777 5777 5777 5777 5777 5777 5778 5778 5778 5778 5778 5778 5778 5779 5779 5779 5780 5780 5780 5780 5781 5781 5781 5781 5781 5781 5781 5780 5780 5780 5780 5780 5781 5781 5781 5781 5781 5781 5781 5781 5781 5782 5782 5782 5783 5783 5782 5782 5783 5783 5783 5783 5784 5784 5784 5785 5784 5784 5785 5785 5786 5786 5786 5786 5786 5787 5788 5788 5789 5790 5791 5793 5794 5794 5795 5796 5796 5796
5776 5775 5775 5775 5775 5776 5776 5776 5775 5775 5775 5775 5776 5776 5776 5776 5776 5776 5777 5777 5777 5777 5777 5778 5778 5778 5778 5778 5778 5779 5779 5778 5778 5778 5778 5778 5778 5778 5778 5778 5778 5778 5778 5778 5778 5778 5779 5779 5779 5779 5779 5780 5779 5779 5779 5780 5780 5780 5781 5781 5781 5782 5782 5782 5782 5782 5782 5783 5783 5783 5783 5783 5784 5784 5785 5785 5786 5788 5789 5790 5791 5791 5792 5792 5793
5774 5774 5773 5774 5774 5774 5774 5774 5774 5774 5774 5774 5774 5774 5774 5775 5775 5775 5775 5775 5775 5775 5775 5776 5776 5776 5776 5776 5776 5776 5776 5776 5776 5776 5776 5776 5776 5776 5776 5776 5775 5775 5775 5775 5776 5776 5776 5776 5776 5776 5777 5777 5777 5777 5777 5777 5777 5777 5778 5778 5779 5779 5779 5779 5779 5779 5779 5780 5780 5780 5781 5781 5781 5781 5782 5782 5783 5784 5786 5786 5787 5787 5788 5789 5789
5772 5772 5772 5772 5773 5773 5773 5773 5773 5772 5772 5772 5772 5772 5772 5773 5773 5773 5773 5773 5773 5773 5773 5774 5774 5774 5774 5775 5774 5774 5774 5774 5774 5774 5774 5774 5774 5774 5773 5773 5773 5773 5773 5773 5773 5773 5773 5774 5774 5774 5774 5774 5774 5774 5774 5774 5775 5774 5774 5775 5775 5776 5777 5777 5777 5776 5776 5776 5777 5777 5778 5778 5778 5778 5779 5780 5780 5781 5782 5782 5783 5783 5784 5785 5785
5770 5770 5770 5771 5771 5771 5771 5771 5771 5771 5771 5770 5770 5770 5770 5770 5771 5771 5771 5771 5771 5771 5772 5772 5772 5772 5773 5773 5773 5772 5772 5772 5772 5772 5771 5771 5771 5771 5771 5771 5771 5770 5770 5770 5770 5770 5770 5771 5771 5771 5771 5771 5771 5771 5771 5771 5771 5772 5772 5772 5772 5773 5773 5774 5774 5774 5774 5774 5774 5775 5775 5775 5775 5775 5776 5776 5777 5777 5778 5778 5778 5779 5780 5781 5782
5768 5768 5768 5769 5769 5769 5769 5769 5769 5769 5769 5769 5769 5768 5768 5768 5768 5769 5769 5769 5769 5770 5770 5770 5770 5771 5771 5771 5771 5770 5770 5770 5770 5770 5769 5769 5769 5768 5768 5768 5768 5768 5768 5768 5768 5768 5767 5767 5768 5768 5768 5768 5768 5768 5768 5768 5768 5768 5769 5769 5769 5769 5770 5770 5770 5770 5770 5770 5771 5772 5772 5772 5772 5772 5773 5773 5773 5774 5774 5774 5775 5775 5776 5777 5777
5766 5767 5767 5767 5767 5767 5767 5767 5767 5767 5767 5767 5767 5767 5766 5766 5766 5766 5767 5767 5767 5768 5768 5768 5769 5769 5769 5769 5769 5768 5768 5768 5768 5768 5768 5767 5767 5767 5766 5766 5766 5766 5766 5766 5766 5765 5765 5765 5765 5765 5765 5765 5766 5766 5766 5765 5765 5765 5765 5766 5766 5766 5766 5766 5766 5766 5766 5767 5767 5767 5768 5768 5768 5769 5769 5769 5770 5770 5770 5771 5771 5772 5772 5773 5773
5764 5765 5765 5765 5765 5765 5765 5764 5764 5764 5764 5764 5764 5764 5765 5765 5764 5764 5764 5765 5765 5765 5766 5766 5766 5767 5767 5767 5767 5767 5767 5766 5766 5766 5766 5766 5765 5765 5765 5764 5764 5764 5764 5764 5764 5763 5763 5763 5763 5763 5763 5763 5763 5763 5763 5763 5763 5763 5762 5762 5762 5763 5763 5763 5763 5763 5763 5763 5763 5763 5764 5764 5764 5765 5765 5766 5766 5766 5767 5767 5767 5768 5768 5769 5769
5761 5762 5763 5763 5763 5763 5763 5763 5763 5763 5763 5763 5763 5763 5763 5763 5763 5763 5763 5763 5763 5763 5763 5764 5764 5764 5765 5765 5765 5765 5765 5765 5764 5764 5764 5764 5764 5764 5763 5763 5763 5762 5762 5762 5762 5761 5761 5761 5761 5761 5761 5761 5761 5761 5761 5761 5761 5761 5760 5760 5760 5760 5760 5760 5760 5760 5760 5760 5760 5760 5760 5760 5761 5761 5761 5762 5762 5763 5763 5763 5764 5764 5764 5764 5765
5759 5760 5760 5761 5761 5761 5761 5761 5761 5761 5761 5761 5761 5761 5761 5761 5761 5761 5761 5761 5761 5761 5762 5762 5762 5762 5762 5762 5763 5763 5763 5763 5763 5763 5762 5762 5762 5762 5762 5762 5761 5761 5761 5760 5760 5760 5760 5759 5759 5759 5759 5759 5759 5759 5759 5759 5759 5759 5759 5758 5758 5758 5758 5758 5758 5758 5758 5758 5758 5758 5758 5758 5758 5758 5758 5758 5759 5759 5760 5760 5760 5760 5760 5760 5760
5757 5757 5758 5758 5758 5758 5759 5759 5759 5759 5759 5759 5759 5759 5759 5759 5759 5759 5759 5759 5759 5759 5760 5760 5760 5761 5761 5760 5761 5761 5761 5761 5761 5761 5761 5760 5760 5760 5760 5759 5759 5759 5759 5759 5758 5758 5758 5757 5757 5757 5757 5757 5757 5757 5757 5757 5757 5756 5756 5756 5756 5756 5755 5755 5755 5755 5755 5755 5755 5755 5755 5755 5755 5755 5755 5755 5756 5756 5756 5756 5757 5757 5757 5757 5757
5754 5755 5756 5756 5756 5756 5757 5757 5757 5757 5757 5757 5757 5757 5757 5757 5757 5757 5757 5757 5758 5758 5758 5758 5759 5759 5759 5759 5758 5758 5758 5758 5758 5758 5758 5758 5758 5758 5758 5758 5757 5757 5757 5757 5756 5756 5755 5755 5755 5755 5754 5754 5754 5754 5754 5754 5754 5754 5754 5753 5753 5753 5753 5753 5752 5752 5752 5752 5752 5752 5752 5752 5752 5752 5752 5752 5752 5753 5753 5753 5754 5754 5754 5754 5754
5752 5753 5753 5754 5754 5754 5754 5755 5755 5755 5755 5755 5755 5755 5755 5755 5755 5755 5756 5756 5756 5756 5756 5756 5756 5756 5756 5756 5756 5756 5756 5756 5756 5756 5756 5756 5756 5756 5756 5756 5755 5755 5755 5755 5754 5754 5753 5753 5753 5752 5752 5752 5751 5751 5751 5751 5751 5751 5751 5751 5751 5750 5750 5750 5750 5750 5750 5749 5749 5749 5749 5749 5749 5749 5749 5749 5749 5749 5750 5750 5750 5750 5751 5750 5750
5750 5750 5751 5751 5751 5751 5752 5753 5753 5753 5753 5754 5754 5754 5753 5753 5754 5754 5754 5754 5754 5754 5754 5754 5754 5754 5754 5754 5753 5753 5753 5753 5753 5753 5753 5753 5754 5753 5753 5753 5753 5753 5752 5752 5752 5752 5751 5751 5751 5750 5750 5750 5749 5749 5749 5748 5748 5748 5748 5748 5748 5748 5748 5748 5748 5747 5747 5747 5747 5747 5747 5747 5746 5746 5746 5746 5746 5746 5746 5746 5747 5747 5747 5747 5747
5747 5747 5748 5748 5748 5748 5749 5750 5750 5751 5751 5751 5752 5752 5752 5752 5752 5752 5752 5752 5751 5752 5752 5752 5752 5751 5751 5751 5751 5751 5751 5750 5750 5750 5750 5750 5750 5751 5751 5750 5750 5750 5749 5749 5749 5749 5749 5748 5748 5748 5747 5747 5747 5747 5746 5746 5746 5746 5745 5745 5745 5745 5744 5744 5744 5745 5744 5744 5744 5744 5744 5744 5744 5744 5744 5743 5743 5743 5743 5743 5743 5744 5744 5744 5744
5744 5745 5745 5745 5745 5745 5746 5747 5747 5748 5749 5749 5749 5749 5749 5749 5749 5749 5749 5749 5749 5749 5748 5749 5749 5749 5749 5748 5748 5748 5748 5748 5747 5747 5747 5747 5747 5747 5747 5747 5747 5747 5747 5746 5746 5746 5745 5745 5745 5745 5744 5744 5744 5744 5744 5743 5743 5743 5742 5742 5742 5741 5741 5741 5741 5741 5741 5741 5741 5740 5740 5740 5740 5740 5740 5740 5740 5740 5740 5740 5740 5740 5740 5740 5740
5742 5742 5742 5742 5742 5742 5742 5743 5744 5745 5745 5746 5746 5747 5747 5747 5747 5746 5746 5746 5746 5746 5746 5746 5746 5746 5746 5746 5746 5745 5745 5745 5745 5744 5744 5744 5744 5744 5744 5744 5744 5744 5743 5743 5742 5742 5742 5742 5742 5741 5741 5741 5740 5740 5740 5740 5739 5739 5739 5738 5738 5737 5737 5737 5737 5737 5737 5736 5736 5736 5736 5736 5736 5736 5736 5736 5736 5736 5735 5736 5736 5736 5736 5736 5736
5739 5739 5739 5740 5740 5739 5739 5740 5740 5741 5742 5743 5743 5743 5744 5743 5743 5743 5743 5743 5743 5743 5743 5743 5743 5743 5743 5743 5742 5742 5742 5741 5741 5741 5742 5742 5741 5741 5741 5741 5740 5740 5740 5739 5739 5738 5738 5738 5737 5738 5737 5737 5737 5737 5736 5736 5736 5735 5735 5734 5733 5733 5733 5733 5732 5733 5733 5732 5732 5732 5732 5732 5732 5732 5732 5732 5731 5731 5731 5731 5731 5731 5731 5731 5731
5736 5736 5737 5737 5737 5737 5737 5737 5737 5738 5739 5739 5740 5740 5740 5740 5740 5740 5740 5740 5740 5740 5739 5739 5739 5739 5739 5739 5739 5738 5738 5739 5739 5738 5738 5738 5738 5738 5738 5737 5737 5737 5737 5736 5735 5734 5734 5733 5733 5733 5733 5733 5733 5733 5733 5732 5731 5731 5730 5729 5729 5729 5728 5728 5728 5728 5728 5728 5727 5727 5727 5727 5727 5726 5726 5727 5727 5726 5725 5725 5726 5726 5725 5726 5726
5733 5733 5733 5734 5734 5734 5734 5734 5734 5734 5735 5735 5736 5736 5736 5736 5736 5736 5736 5736 5736 5736 5735 5736 5736 5735 5735 5736 5735 5734 5734 5735 5735 5735 5735 5734 5734 5734 5734 5734 5733 5733 5733 5733 5731 5730 5729 5729 5728 5728 5728 5728 5728 5728 5728 5728 5727 5726 5725 5725 5724 5724 5723 5723 5722 5723 5724 5723 5722 5722 5722 5722 5722 5721 5721 5721 5722 5722 5720 5720 5720 5721 5720 5720 5721
5729 5729 5729 5730 5731 5730 5730 5730 5730 5730 5731 5731 5731 5732 5732 5732 5732 5732 5732 5732 5732 5731 5731 5731 5731 5731 5731 5731 5731 5730 5730 5730 5730 5731 5731 5730 5729 5729 5729 5729 5729 5728 5728 5728 5726 5725 5725 5724 5724 5724 5723 5723 5723 5724 5723 5723 5722 5721 5720 5720 5719 5718 5717 5717 5717 5717 5718 5718 5716 5716 5716 5716 5716 5716 5715 5714 5715 5716 5715 5714 5714 5714 5714 5715 5715
5725 5725 5725 5725 5726 5726 5726 5726 5726 5726 5726 5726 5727 5727 5728 5728 5728 5727 5727 5727 5727 5727 5727 5727 5727 5727 5727 5727 5726 5726 5726 5726 5725 5726 5725 5724 5724 5724 5724 5724 5724 5723 5723 5722 5721 5721 5720 5719 5719 5719 5718 5717 5718 5718 5718 5717 5717 5716 5715 5714 5713 5712 5711 5711 5711 5710 5711 5712 5711 5710 5710 5709 5709 5709 5708 5707 5708 5708 5708 5707 5707 5707 5707 5708 5708
5720 5720 5720 5721 5721 5720 5720 5721 5721 5721 5721 5722 5722 5722 5723 5723 5723 5723 5722 5722 5722 5722 5722 5722 5722 5722 5722 5722 5722 5721 5721 5721 5720 5720 5720 5719 5719 5719 5718 5718 5718 5718 5717 5716 5716 5716 5715 5714 5713 5713 5713 5712 5712 5712 5712 5711 5710 5710 5709 5707 5706 5705 5704 5704 5704 5703 5702 5703 5704 5704 5704 5702 5701 5702 5702 5700 5699 5700 5700 5699 5699 5699 5699 5700 5701
5714 5714 5714 5715 5715 5715 5715 5715 5716 5716 5716 5716 5717 5717 5717 5717 5717 5717 5717 5717 5717 5717 5718 5718 5717 5717 5717 5717 5717 5716 5716 5716 5715 5715 5714 5714 5713 5713 5713 5712 5712 5712 5712 5711 5710 5710 5709 5708 5708 5707 5707 5706 5705 5705 5705 5705 5704 5703 5702 5701 5699 5699 5698 5697 5697 5696 5695 5694 5694 5695 5696 5694 5693 5693 5694 5693 5691 5691 5691 5691 5691 5690 5690 5691 5692
5709 5709 5708 5708 5708 5708 5709 5709 5710 5710 5710 5711 5711 5711 5711 5711 5712 5712 5712 5712 5712 5712 5712 5712 5712 5712 5711 5711 5711 5711 5710 5710 5710 5709 5709 5708 5708 5707 5707 5707 5706 5706 5706 5705 5705 5704 5703 5702 5701 5701 5700 5699 5698 5698 5697 5697 5696 5695 5695 5694 5693 5692 5691 5690 5690 5689 5688 5687 5686 5686 5686 5685 5684 5683 5684 5684 5683 5683 5682 5682 5682 5682 5681 5681 5681
5703 5703 5703 5702 5702 5702 5702 5703 5704 5704 5705 5705 5705 5705 5706 5706 5707 5707 5707 5707 5707 5707 5707 5707 5707 5706 5706 5706 5706 5705 5705 5705 5704 5704 5703 5703 5703 5702 5701 5701 5700 5700 5700 5699 5699 5698 5697 5696 5695 5695 5694 5693 5692 5691 5690 5689 5689 5688 5687 5686 5685 5684 5683 5683 5682 5682 5681 5680 5679 5678 5678 5677 5675 5674 5674 5674 5673 5673 5673 5673 5672 5672 5672 5672 5672
5696 5697 5697 5697 5697 5697 5697 5697 5697 5698 5699 5699 5700 5700 5701 5701 5701 5701 5701 5701 5701 5701 5701 5702 5701 5701 5701 5701 5700 5700 5700 5700 5699 5698 5698 5697 5697 5697 5696 5695 5695 5694 5694 5693 5692 5692 5691 5690 5689 5688 5687 5687 5686 5685 5684 5683 5681 5680 5679 5679 5677 5676 5676 5675 5675 5674 5673 5672 5671 5670 5670 5669 5667 5665 5665 5664 5664 5664 5664 5663 5662 5663 5663 5662 5662
5690 5690 5690 5690 5691 5690 5690 5691 5691 5692 5693 5693 5694 5695 5695 5696 5695 5695 5695 5696 5696 5696 5696 5696 5696 5696 5696 5696 5695 5694 5694 5694 5693 5692 5692 5691 5691 5691 5690 5689 5689 5688 5687 5686 5685 5685 5684 5683 5682 5681 5680 5680 5679 5678 5677 5676 5674 5673 5672 5671 5670 5669 5668 5667 5667 5666 5665 5663 5662 5662 5662 5661 5659 5657 5656 5656 5655 5655 5654 5653 5652 5652 5653 5652 5652
5683 5683 5683 5684 5684 5684 5684 5685 5685 5686 5687 5688 5688 5689 5690 5690 5690 5690 5690 5690 5690 5690 5690 5690 5690 5690 5690 5690 5689 5688 5688 5688 5687 5687 5686 5685 5684 5684 5684 5683 5682 5682 5681 5679 5678 5678 5677 5676 5675 5674 5674 5673 5672 5671 5670 5669 5667 5666 5665 5663 5662 5661 5660 5659 5658 5658 5657 5655 5653 5654 5653 5651 5650 5649 5647 5647 5647 5646 5645 5644 5643 5643 5642 5642 5641
5677 5677 5677 5677 5678 5678 5678 5678 5679 5680 5681 5681 5682 5683 5684 5684 5684 5684 5684 5685 5685 5684 5684 5684 5684 5684 5684 5683 5683 5682 5682 5682 5681 5680 5680 5679 5678 5677 5677 5676 5675 5675 5674 5673 5672 5671 5670 5669 5668 5668 5667 5666 5664 5663 5662 5662 5660 5658 5657 5656 5654 5653 5652 5651 5650 5649 5649 5647 5645 5645 5645 5643 5642 5641 5639 5638 5638 5638 5637 5636 5635 5634 5633 5632 5631